Location: Contre
(49.7477°N, 2.0963°E)
Time: 13:05:46
(UTC+00:00)

Meteor 2-12 Rocket - Pass Details

Date: 09 August 2024
Orbit: 936 x 956 km, 82.5° (Epoch: 14 September)

Event Time Altitude Azimuth Distance (km) Brightness Sun altitude
Rises 00:17:23 0° 352° (N) 3,612 8.8 -24.3°
Reaches altitude 10° 00:19:56 10° 356° (N) 2,665 7.8 -24.3°
Maximum altitude 00:25:56 57° 75° (ENE) 1,107 4.8 -24.2°
Enters shadow 00:28:10 37° 134° (SE) 1,435 5.1 -24.1°
